343  
ASUS41 KALY 051210  
RWRALY  
 
NEW YORK STATE HOURLY WEATHER ROUNDUP  
NATIONAL WEATHER SERVICE ALBANY NY  
800 AM EDT TUE JUL 05 2022  
 
NOTE: "FAIR" INDICATES FEW OR NO CLOUDS BELOW 12,000 FEET WITH NO  
SIGNIFICANT WEATHER AND/OR NO S TO VISIBILITY
.  
 
NYZ032-033-038>043-046>054-057>066-NYZ062>081-082-084-051300-  
EAST  
 
 
CITY SKY/WX TMP DP RH WIND PRES REMARKS
 
ALBANY CLOUDY 69 56 62 CALM 30.07S  
GLENS FALLS LGT RAIN 63 58 83 CALM 30.07S  
POUGHKEEPSIE CLOUDY 67 61 81 CALM 30.08S  
NEWBURGH CLOUDY 68 59 73 CALM 30.09S  
MONTGOMERY CLOUDY 66 60 81 CALM 30.09S  
WHITE PLAINS CLOUDY 72 60 66 CALM 30.10S  
ISLIP CLOUDY 73 64 73 SW8 30.10S  
NEW YORK CITY CLOUDY 77 54 44 S8 30.09S  
CENTRAL PARK PTSUNNY 75 56 51 VRB6 30.12S  

 
 
NYZ005>009-017-018-044>046-055-056-051300-  
CENTRAL  
 
 
CITY SKY/WX TMP DP RH WIND PRES REMARKS
 
FULTON LGT RAIN 66 59 78 CALM 29.99F  
SYRACUSE LGT RAIN 66 57 72 E3 30.00F  
ROME CLOUDY 64 56 75 E8 30.04F  
ELMIRA PTSUNNY 68 61 78 N3 30.02F  
BINGHAMTON PTSUNNY 67 57 70 S3 30.07S  
MONTICELLO CLOUDY 64 60 87 CALM 30.12S  

 
 
NYZ026>034-041>043-087-051300-  
NORTH  
 
 
CITY SKY/WX TMP DP RH WIND PRES REMARKS
 
WATERTOWN CLOUDY 65 56 72 N7 30.00S  
FORT DRUM NOT AVBL  
OGDENSBURG PTSUNNY 63 59 88 CALM 30.00S  
MASSENA CLOUDY 63 54 72 S3 30.02F  
SARANAC LAKE CLOUDY 58 55 90 CALM 30.06F  
PLATTSBURGH PTSUNNY 65 57 75 CALM 30.03F  

 
 
NYZ001>004-010>016-019>021-085-051300-  
WEST  
 
 
CITY SKY/WX TMP DP RH WIND PRES REMARKS
 
NIAGARA FALLS CLOUDY 76 59 55 S9 29.91F  
BUFFALO CLOUDY 74 57 55 S6 29.92F  
DUNKIRK CLOUDY 76 56 49 S15 29.92F  
JAMESTOWN CLOUDY 66 57 72 S7 30.00F  
WELLSVILLE CLOUDY 69 55 60 S6G17 30.05F  
ROCHESTER CLOUDY 72 61 68 S3 29.95F  
PENN YAN CLOUDY 71 58 63 SW10 30.01F  

 
 
KEY  
WCI = WIND CHILL INDEX  
VSB = VISIBILITY  
HX = HEAT INDEX  

 
 
 
CLICK HERE TO GO TO PREVIOUS BULLETINS.

The Nexlab NY Page
The Nexlab VT Page
The Nexlab MA Page
The Nexlab CT Page Main Text Page